This is the latest recevied weather packets stored in our database for station/object YD8XVB-13. If no packets are shown the sender has not sent any weather packets the latest 10 day(s).
| Time | Temp. | Humidity | Pressure | Rain* | Wind** | Luminosity | Snow |
|---|---|---|---|---|---|---|---|
| 1777102423 | 33.89° C | 10% | 0 hPa | - | - | 0 W/m² | - |
| 1777102123 | 34.44° C | 10% | 0 hPa | - | - | 0 W/m² | - |
| 1777101823 | 34.44° C | 10% | 0 hPa | - | - | 0 W/m² | - |
| 1777101522 | 34.44° C | 10% | 0 hPa | - | - | 0 W/m² | - |
| 1777101222 | 34.44° C | 10% | 0 hPa | - | - | 0 W/m² | - |
| 1777100922 | 34.44° C | 10% | 0 hPa | - | - | 0 W/m² | - |
| 1777100622 | 35° C | 20% | 0 hPa | - | - | 0 W/m² | - |
| 1777100322 | 35.56° C | 10% | 0 hPa | - | - | 0 W/m² | - |
| 1777100023 | 35° C | 10% | 0 hPa | - | - | 0 W/m² | - |
| 1777099723 | 35.56° C | 11% | 0 hPa | - | - | 0 W/m² | - |
| 1777099423 | 35.56° C | 11% | 0 hPa | - | - | 0 W/m² | - |
| 1777099122 | 35.56° C | 11% | 0 hPa | - | - | 0 W/m² | - |
| 1777098822 | 35° C | 10% | 0 hPa | - | - | 0 W/m² | - |
| 1777098522 | 36.67° C | 11% | 0 hPa | - | - | 0 W/m² | - |
| 1777098222 | 36.67° C | 11% | 0 hPa | - | - | 0 W/m² | - |
| 1777097922 | 37.22° C | 11% | 0 hPa | - | - | 0 W/m² | - |
| 1777097622 | 37.22° C | 11% | 0 hPa | - | - | 0 W/m² | - |
| 1777097322 | 35.56° C | 11% | 0 hPa | - | - | 0 W/m² | - |
| 1777097022 | 36.11° C | 11% | 0 hPa | - | - | 0 W/m² | - |
| 1777096722 | 37.78° C | 61% | 0 hPa | - | - | 0 W/m² | - |
| 1777096422 | 38.33° C | 95% | 0 hPa | - | - | 0 W/m² | - |
| 1777096122 | 37.78° C | 12% | 0 hPa | - | - | 0 W/m² | - |
| 1777095822 | 37.22° C | 11% | 0 hPa | - | - | 0 W/m² | - |
| 1777095522 | 36.67° C | 11% | 0 hPa | - | - | 0 W/m² | - |
| 1777095222 | 37.78° C | 11% | 0 hPa | - | - | 0 W/m² | - |
* Rain since midnight (hover to see other rain measurements)
** Current wind speed in m/s (hover to see current wind gust speed)